Location: Casilda
(33.0440°S, 61.1680°W)
Time: 20:00:22
(UTC-03:00)

ISS - Pass Details

Date: 24 November 2023
Orbit: 415 x 417 km, 51.6° (Epoch: 04 December)

Event Time Altitude Azimuth Distance (km) Brightness Sun altitude
Exits shadow 03:21:11 21° 93° (E) 1,007 -1.4 -25.6°
Drops below altitude 10° 03:22:45 10° 112° (ESE) 1,511 -0.1 -25.4°
Sets 03:25:00 0° 123° (ESE) 2,382 1.3 -25.1°
